Home > Weather > Küsnacht > Past weeks

Flag for Switzerland Past Weather in Küsnacht, Zurich, Switzerland — Yesterday and Last 2 Weeks

Now
68 °F

Mild.


Feels Like: 68 °F
Forecast: 58 / 84 °F
Wind: 1 mph from South

Location: Zuerich-Fluntern

Current Time: Aug 26, 2016 at 9:07:41 AM

Latest Report: Aug 26, 2016 at 8:00 AM


Visibility: N/A

Pressure: 30.07 "Hg

Humidity: 91%

Dew Point: 65 °F

Location of KüsnachtLocation

Past Weather in Küsnacht — Graph

°F

Küsnacht Temperature Yesterday

Maximum temperature yesterday: 85 °F (at 5:00 PM)
Minimum temperature yesterday: 60 °F (at 7:00 AM)
Average temperature yesterday: 72 °F

High & Low Weather Summary for the Past Weeks

 TemperatureHumidityPressure
High85 °F (Aug 25, 5:00 PM)97% (Aug 18, 6:00 PM)30.39 "Hg (Aug 18, 6:00 PM)
Low49 °F (Aug 11, 7:00 AM)39% (Aug 22, 6:00 PM)29.80 "Hg (Aug 17, 6:00 PM)
Average66 °F74%30.11 "Hg
* Reported Aug 11 7:00 AM — Aug 26 7:00 AM, Küsnacht, Weather by CustomWeather, © 2016

Note: Actual official high and low records may vary slightly from our data, if they occured in-between our weather recording intervals... More about our weather records

Advertising

Küsnacht Weather History for the Previous 24 Hours

Scroll right to see more
 ConditionsComfort  
Time TempWeatherWind HumidityBarometerVisibility
7:00 AM
Fri, Aug 26
66 °FMild.No wind95%30.07 "HgN/A
6:00 AM66 °FMild.No wind94%30.06 "HgN/A
5:00 AM66 °FMild.No wind93%30.06 "HgN/A
4:00 AM67 °FMild.1 mph93%30.04 "HgN/A
3:00 AM68 °FMild.1 mph92%30.03 "HgN/A
2:00 AM69 °FMild.2 mph90%30.02 "HgN/A
1:00 AM69 °FMild.No wind90%30.03 "HgN/A
12:00 AM70 °FMild.No wind86%30.02 "HgN/A
11:00 PM
Thu, Aug 25
71 °FMild.No wind84%30.02 "HgN/A
10:00 PM72 °FMild.2 mph81%30.01 "HgN/A
9:00 PM74 °FMild.3 mph76%30.00 "HgN/A
8:00 PM78 °FWarm.1 mph71%29.97 "HgN/A
7:00 PM83 °FWarm.3 mph56%29.95 "HgN/A
6:00 PM83 °FWarm.5 mph52%29.96 "HgN/A
5:00 PM85 °FWarm.3 mph48%29.97 "HgN/A
4:00 PM85 °FWarm.2 mph47%29.98 "HgN/A
3:00 PM84 °FWarm.5 mph53%29.99 "HgN/A
2:00 PM82 °FSunny.6 mph55%30.01 "HgN/A
1:00 PM80 °FWarm.5 mph63%30.03 "HgN/A
12:00 PM76 °FMild.2 mph68%30.05 "HgN/A
11:00 AM73 °FMild.2 mph73%30.07 "HgN/A
10:00 AM68 °FMild.1 mph77%30.09 "HgN/A
9:00 AM65 °FMild.1 mph83%30.11 "HgN/A
Weather by CustomWeather, © 2016

See weather overviewHow to use our weather pages